Weather History for Imperial, NE

Change the Weather History Date:

Saturday, November 5, 2011

  Actual Average Record
Temperature  
Mean Temperature 50 °F 42 °F  
Max Temperature 62 °F 56 °F 82 °F (1915)
Min Temperature 38 °F 29 °F 7 °F (1967)
Degree Days  
Heating Degree Days 15 23  
Month to date heating degree days 123 109  
Cooling Degree Days 0 0  
Month to date cooling degree days 0 0  
Year to date cooling degree days 1096 963  
Growing Degree Days 2 (Base 50)    
Moisture  
Dew Point 32 °F    
Average Humidity 59    
Maximum Humidity 89    
Minimum Humidity 29    
Precipitation  
Precipitation 0.10 in 0.03 in 0.52 in (2013)
Sea Level Pressure  
Sea Level Pressure 29.44 in    
Wind  
Wind Speed 22 mph (South)    
Max Wind Speed 41 mph    
Max Gust Speed 55 mph    
Visibility 10 miles    
Events Rain    
T = Trace of Precipitation, MM = Missing Value Source: NWS Daily Summary

Daily Weather History Graph

Daily Weather History Graph

Search for Another Location

Airport:

Trip Planner

Search our weather history database for the weather conditions in past years. The results will help you decide how hot, cold, wet, or windy it might be!

Date:

Astronomy

Nov. 05, 2011 Rise Set
Actual Time 7:20 AM MDT 5:38 PM MDT
Civil Twilight 6:52 AM MDT 6:07 PM MDT
Nautical Twilight 6:19 AM MDT 6:39 PM MDT
Astronomical Twilight 5:47 AM MDT 7:11 PM MDT
Moon 2:58 PM MDT (11/5) 2:31 AM MDT (11/5)
Length of Visible Light 11h 15m
Length of Day
10h 17m
Waxing Gibbous, 78% of the Moon is Illuminated
Nov 5
Waxing Gibbous
Nov 10
Full
Nov 18
Last Quarter
Nov 24
New
Dec 2
First Quarter

Hourly Weather History & Observations

Time (MDT) Temp. Windchill Dew Point Humidity Pressure Visibility Wind Dir Wind Speed Gust Speed Precip Events Conditions
12:53 AM 46.9 °F - 30.0 °F 52% 29.66 in 10.0 mi SSE 16.1 mph - N/A   Clear
1:53 AM 46.0 °F 39.3 °F 30.0 °F 54% 29.64 in 10.0 mi South 16.1 mph - N/A   Clear
2:53 AM 46.0 °F 39.0 °F 30.0 °F 54% 29.60 in 10.0 mi South 17.3 mph - N/A   Clear
3:53 AM 46.0 °F 38.8 °F 30.0 °F 54% 29.57 in 10.0 mi South 18.4 mph 26.5 mph N/A   Clear
4:53 AM 45.0 °F 37.1 °F 30.0 °F 56% 29.56 in 10.0 mi South 19.6 mph 27.6 mph N/A   Clear
5:53 AM 45.0 °F 37.6 °F 30.0 °F 56% 29.56 in 10.0 mi South 17.3 mph 25.3 mph N/A   Clear
6:53 AM 42.8 °F 34.8 °F 30.2 °F 61% 29.53 in 10.0 mi SSE 17.3 mph - N/A   Clear
7:53 AM 42.1 °F 33.6 °F 28.9 °F 60% 29.53 in 10.0 mi SSE 18.4 mph 24.2 mph N/A   Clear
8:53 AM 44.6 °F 36.6 °F 30.2 °F 57% 29.50 in 10.0 mi SSE 19.6 mph 28.8 mph N/A   Clear
9:53 AM 48.9 °F - 30.9 °F 50% 29.48 in 10.0 mi SSE 21.9 mph 27.6 mph N/A   Clear
10:53 AM 55.0 °F - 28.9 °F 37% 29.46 in 10.0 mi SSE 19.6 mph 25.3 mph N/A   Clear
11:53 AM 57.9 °F - 28.9 °F 33% 29.40 in 10.0 mi SSE 24.2 mph 34.5 mph N/A   Clear
12:53 PM 59.0 °F - 28.4 °F 31% 29.38 in 10.0 mi South 27.6 mph 33.4 mph N/A   Clear
1:53 PM 60.8 °F - 30.2 °F 31% 29.34 in 10.0 mi South 24.2 mph 33.4 mph N/A   Clear
2:53 PM 62.1 °F - 30.0 °F 30% 29.28 in 10.0 mi South 25.3 mph 39.1 mph N/A   Clear
3:53 PM 60.1 °F - 28.9 °F 31% 29.26 in 10.0 mi SSE 29.9 mph 43.7 mph N/A   Clear
4:53 PM 59.0 °F - 28.9 °F 32% 29.25 in 10.0 mi SSE 27.6 mph 40.3 mph N/A   Mostly Cloudy
5:53 PM 57.0 °F - 28.9 °F 34% 29.26 in 10.0 mi SSE 23.0 mph 35.7 mph N/A   Clear
6:53 PM 57.2 °F - 33.8 °F 41% 29.30 in 10.0 mi South 27.6 mph 42.6 mph N/A   Overcast
7:53 PM 54.0 °F - 37.0 °F 53% 29.28 in 10.0 mi South 12.7 mph - N/A   Overcast
8:51 PM 51.8 °F - 39.2 °F 62% 29.32 in 10.0 mi WSW 21.9 mph 26.5 mph 0.00 in   Overcast
8:53 PM 51.1 °F - 41.0 °F 68% 29.32 in 10.0 mi WSW 20.7 mph 27.6 mph 0.00 in   Overcast
9:17 PM 48.2 °F - 41.0 °F 76% 29.37 in 10.0 mi NW 23.0 mph 33.4 mph N/A   Overcast
9:53 PM 44.6 °F 34.6 °F 39.2 °F 81% 29.41 in 4.0 mi NW 31.1 mph 52.9 mph N/A Rain Light Rain
10:53 PM 43.0 °F 33.5 °F 39.0 °F 86% 29.51 in 10.0 mi NW 24.2 mph 32.2 mph 0.07 in Rain Light Rain
11:53 PM 39.9 °F 29.7 °F 35.1 °F 83% 29.55 in 10.0 mi NW 23.0 mph 32.2 mph 0.00 in   Clear